This is the latest recevied weather packets stored in our database for station/object NT9G. If no packets are shown the sender has not sent any weather packets the latest 10 day(s).
| Time | Temp. | Humidity | Pressure | Rain* | Wind** | Luminosity | Snow |
|---|---|---|---|---|---|---|---|
| 1777645191 | 9.44° C | 73% | 1018.5 hPa | 0.25 mm | - | - | - |
| 1777644891 | 9.44° C | 73% | 1018.4 hPa | 0.25 mm | - | - | - |
| 1777644591 | 8.89° C | 75% | 1018.4 hPa | 0.25 mm | - | - | - |
| 1777644290 | 8.89° C | 79% | 1018.4 hPa | 0.25 mm | - | - | - |
| 1777643990 | 8.33° C | 82% | 1018.4 hPa | 0.25 mm | - | - | - |
| 1777643690 | 8.33° C | 83% | 1018.4 hPa | 0.25 mm | - | - | - |
| 1777643389 | 8.33° C | 83% | 1018.5 hPa | 0.25 mm | - | - | - |
| 1777643089 | 7.78° C | 83% | 1018.4 hPa | 0.25 mm | - | - | - |
| 1777642789 | 7.78° C | 84% | 1018.5 hPa | 0.25 mm | - | - | - |
| 1777642489 | 8.33° C | 85% | 1018.5 hPa | 0.25 mm | - | - | - |
| 1777642188 | 8.33° C | 88% | 1018.4 hPa | 0.25 mm | - | - | - |
| 1777641888 | 8.33° C | 91% | 1018.4 hPa | 0.25 mm | - | - | - |
| 1777641588 | 7.78° C | 92% | 1018.3 hPa | 0.25 mm | - | - | - |
| 1777641287 | 7.78° C | 93% | 1018.2 hPa | 0.25 mm | - | - | - |
| 1777640987 | 7.78° C | 97% | 1018 hPa | 0.25 mm | - | - | - |
| 1777640687 | 7.22° C | 100% | 1018.1 hPa | 0.25 mm | - | - | - |
| 1777640387 | 7.22° C | 100% | 1018.1 hPa | 0.25 mm | - | - | - |
| 1777640086 | 6.67° C | 100% | 1018.2 hPa | 0.25 mm | - | - | - |
| 1777639786 | 6.67° C | 100% | 1018.3 hPa | 0 mm | - | - | - |
| 1777639486 | 6.67° C | 100% | 1018.3 hPa | 0 mm | - | - | - |
| 1777639185 | 6.67° C | 100% | 1018.2 hPa | 0 mm | - | - | - |
| 1777638885 | 6.67° C | 100% | 1018.1 hPa | 0 mm | - | - | - |
| 1777638597 | 6.11° C | 100% | 1018 hPa | 0 mm | - | - | - |
| 1777638285 | 6.11° C | 100% | 1018 hPa | 0 mm | - | - | - |
| 1777637984 | 6.11° C | 100% | 1017.8 hPa | 0 mm | - | - | - |
* Rain since midnight (hover to see other rain measurements)
** Current wind speed in m/s (hover to see current wind gust speed)